| time (UTC) | temp F | wind direction | speed MPH | gust MPH | rain 1hr in | rain 24hr in | rain mn in | humidity % | barometer mb |
| 20260506112031 | 62 | 229 | 3.0 | 7.0 | 0.00 | 0.34 | 0.02 | 63 | 1004.1 |
| 20260506111530 | 62 | 185 | 3.0 | 4.0 | 0.00 | 0.34 | 0.02 | 62 | 1004.1 |
| 20260506111035 | 61 | 140 | 2.0 | 4.0 | 0.00 | 0.34 | 0.02 | 62 | 1004.2 |
| 20260506110527 | 61 | 194 | 3.0 | 7.0 | 0.00 | 0.34 | 0.02 | 61 | 1004.1 |
| 20260506110024 | 62 | 218 | 2.0 | 6.0 | 0.00 | 0.34 | 0.02 | 61 | 1004.1 |
| 20260506105523 | 62 | 169 | 4.0 | 8.0 | 0.00 | 0.34 | 0.02 | 62 | 1004.2 |
| 20260506105021 | 61 | 175 | 2.0 | 6.0 | 0.00 | 0.34 | 0.02 | 64 | 1004.2 |
| 20260506104519 | 61 | 161 | 5.0 | 7.0 | 0.00 | 0.34 | 0.02 | 65 | 1004.2 |
| 20260506104038 | 62 | 230 | 2.0 | 8.0 | 0.00 | 0.34 | 0.02 | 61 | 1004.2 |
| 20260506103536 | 61 | 247 | 1.0 | 4.0 | 0.00 | 0.34 | 0.02 | 61 | 1004.4 |
| 20260506103115 | 61 | 228 | 4.0 | 6.0 | 0.00 | 0.34 | 0.02 | 64 | 1004.2 |
| 20260506102614 | 61 | 161 | 2.0 | 4.0 | 0.00 | 0.34 | 0.02 | 64 | 1004.3 |
| 20260506102111 | 60 | 193 | 3.0 | 6.0 | 0.00 | 0.34 | 0.02 | 64 | 1004.3 |
| 20260506101609 | 61 | 196 | 5.0 | 8.0 | 0.00 | 0.34 | 0.02 | 65 | 1004.4 |
| 20260506101128 | 61 | 160 | 3.0 | 8.0 | 0.00 | 0.34 | 0.02 | 63 | 1004.4 |
| 20260506100606 | 60 | 187 | 4.0 | 8.0 | 0.00 | 0.34 | 0.02 | 66 | 1004.4 |
| 20260506100124 | 61 | 219 | 2.0 | 6.0 | 0.00 | 0.34 | 0.02 | 66 | 1004.3 |
| 20260506095603 | 61 | 177 | 3.0 | 4.0 | 0.00 | 0.34 | 0.02 | 68 | 1004.3 |
| 20260506095101 | 60 | 155 | 6.0 | 11.0 | 0.00 | 0.34 | 0.02 | 70 | 1004.3 |
| 20260506094559 | 60 | 156 | 3.0 | 11.0 | 0.00 | 0.34 | 0.02 | 70 | 1004.3 |
| 20260506094057 | 59 | 231 | 3.0 | 7.0 | 0.00 | 0.34 | 0.02 | 70 | 1004.3 |
| 20260506093556 | 59 | 151 | 2.0 | 6.0 | 0.00 | 0.34 | 0.02 | 71 | 1004.4 |
| 20260506093054 | 59 | 146 | 4.0 | 6.0 | 0.00 | 0.34 | 0.02 | 72 | 1004.5 |
| 20260506092552 | 59 | 180 | 4.0 | 7.0 | 0.00 | 0.34 | 0.02 | 71 | 1004.5 |
| 20260506092051 | 58 | 201 | 3.0 | 6.0 | 0.00 | 0.34 | 0.02 | 73 | 1004.6 |
| 20260506091550 | 58 | 221 | 3.0 | 7.0 | 0.00 | 0.34 | 0.02 | 75 | 1004.5 |
| 20260506091050 | 58 | 221 | 3.0 | 7.0 | 0.00 | 0.34 | 0.02 | 76 | 1004.6 |
| 20260506090546 | 57 | 208 | 2.0 | 6.0 | 0.00 | 0.34 | 0.02 | 78 | 1004.6 |
| 20260506090044 | 58 | 202 | 1.0 | 4.0 | 0.00 | 0.34 | 0.02 | 77 | 1004.6 |
| 20260506085542 | 58 | 213 | 2.0 | 4.0 | 0.00 | 0.34 | 0.02 | 77 | 1004.6 |
| 20260506085101 | 58 | 183 | 2.0 | 4.0 | 0.00 | 0.34 | 0.02 | 77 | 1004.6 |
| 20260506084539 | 59 | 229 | 2.0 | 4.0 | 0.00 | 0.34 | 0.02 | 75 | 1004.6 |
| 20260506084037 | 58 | 170 | 3.0 | 6.0 | 0.00 | 0.34 | 0.02 | 77 | 1004.6 |
| 20260506083535 | 57 | 139 | 3.0 | 6.0 | 0.00 | 0.34 | 0.02 | 79 | 1004.5 |
| 20260506083033 | 56 | 127 | 4.0 | 7.0 | 0.00 | 0.34 | 0.02 | 80 | 1004.6 |
| 20260506082532 | 57 | 185 | 3.0 | 8.0 | 0.00 | 0.34 | 0.02 | 79 | 1004.5 |
| 20260506082030 | 56 | 203 | 2.0 | 6.0 | 0.00 | 0.34 | 0.02 | 81 | 1004.5 |
| 20260506081529 | 55 | 272 | 1.0 | 4.0 | 0.00 | 0.34 | 0.02 | 83 | 1004.5 |
| 20260506081027 | 55 | 300 | 2.0 | 4.0 | 0.00 | 0.34 | 0.02 | 83 | 1004.5 |
| 20260506080526 | 55 | 260 | 3.0 | 7.0 | 0.00 | 0.34 | 0.02 | 85 | 1004.5 |
| 20260506073116 | 55 | 248 | 2.0 | 7.0 | 0.00 | 0.34 | 0.02 | 86 | 1004.3 |
| 20260506072631 | 55 | 248 | 2.0 | 4.0 | 0.00 | 0.34 | 0.02 | 87 | 1004.3 |
| 20260506072109 | 55 | 239 | 4.0 | 7.0 | 0.00 | 0.34 | 0.02 | 87 | 1004.3 |
| 20260506071611 | 55 | 229 | 3.0 | 7.0 | 0.00 | 0.34 | 0.02 | 87 | 1004.2 |
| 20260506071126 | 55 | 233 | 3.0 | 6.0 | 0.00 | 0.34 | 0.02 | 87 | 1004.2 |
| 20260506070605 | 55 | 227 | 2.0 | 4.0 | 0.00 | 0.34 | 0.02 | 88 | 1004.2 |
| 20260506070103 | 55 | 234 | 3.0 | 4.0 | 0.00 | 0.34 | 0.02 | 87 | 1004.2 |
| 20260506062052 | 53 | 123 | 3.0 | 4.0 | 0.00 | 0.34 | 0.02 | 92 | 1004.1 |
| 20260506061550 | 53 | 129 | 1.0 | 4.0 | 0.00 | 0.34 | 0.02 | 93 | 1004.1 |
| 20260506061046 | 53 | 135 | 1.0 | 2.0 | 0.00 | 0.34 | 0.02 | 94 | 1004.1 |
| 20260506060544 | 53 | 135 | 1.0 | 4.0 | 0.00 | 0.34 | 0.02 | 94 | 1004.2 |
| 20260506051025 | 52 | 135 | 2.0 | 4.0 | 0.00 | 0.34 | 0.02 | 95 | 1004.5 |
| 20260506050523 | 52 | 135 | 3.0 | 4.0 | 0.00 | 0.34 | 0.02 | 95 | 1004.4 |
| 20260506045020 | 52 | 180 | 1.0 | 2.0 | 0.00 | 0.34 | 0.02 | 94 | 1004.3 |
| 20260506044516 | 52 | 195 | 1.0 | 4.0 | 0.00 | 0.34 | 0.02 | 93 | 1004.3 |
| 20260506044115 | 52 | 203 | 1.0 | 4.0 | 0.00 | 0.34 | 0.02 | 93 | 1004.1 |
| 20260506043653 | 52 | 215 | 1.0 | 4.0 | 0.00 | 0.34 | 0.02 | 94 | 1004.2 |
| 20260506043111 | 52 | 220 | 1.0 | 4.0 | 0.00 | 0.34 | 0.02 | 94 | 1004.2 |
| 20260506042610 | 52 | 203 | 1.0 | 4.0 | 0.00 | 0.34 | 0.02 | 94 | 1004.2 |
| 20260506042108 | 52 | 203 | 1.0 | 4.0 | 0.00 | 0.34 | 0.02 | 95 | 1004.3 |
| 20260506041606 | 52 | 248 | 1.0 | 2.0 | 0.00 | 0.34 | 0.02 | 95 | 1004.3 |
| 20260506041106 | 52 | 195 | 2.0 | 4.0 | 0.00 | 0.34 | 0.02 | 95 | 1004.2 |
| 20260506040603 | 52 | 192 | 2.0 | 4.0 | 0.00 | 0.34 | 0.02 | 95 | 1004.2 |
| 20260506040101 | 52 | 220 | 3.0 | 7.0 | 0.00 | 0.34 | 0.02 | 95 | 1004.2 |
| 20260506035559 | 52 | 198 | 3.0 | 6.0 | 0.00 | 0.34 | 0.02 | 96 | 1004.2 |
| 20260506035118 | 52 | 206 | 3.0 | 4.0 | 0.00 | 0.34 | 0.02 | 95 | 1004.2 |
| 20260506034616 | 52 | 207 | 2.0 | 6.0 | 0.00 | 0.34 | 0.02 | 95 | 1004.2 |
| 20260506034054 | 52 | 199 | 3.0 | 6.0 | 0.00 | 0.34 | 0.02 | 95 | 1004.3 |
| 20260506033555 | 52 | 214 | 2.0 | 4.0 | 0.00 | 0.34 | 0.02 | 95 | 1004.4 |
| 20260506033052 | 52 | 220 | 2.0 | 4.0 | 0.00 | 0.34 | 0.02 | 95 | 1004.4 |
| 20260506032552 | 52 | 225 | 3.0 | 6.0 | 0.00 | 0.34 | 0.02 | 95 | 1004.4 |
| 20260506032047 | 52 | 225 | 1.0 | 4.0 | 0.00 | 0.34 | 0.02 | 95 | 1004.3 |
| 20260506031545 | 52 | 225 | 1.0 | 4.0 | 0.00 | 0.34 | 0.02 | 95 | 1004.4 |
| 20260506031044 | 52 | 225 | 2.0 | 4.0 | 0.00 | 0.34 | 0.02 | 95 | 1004.3 |
| 20260506030542 | 52 | 208 | 2.0 | 4.0 | 0.00 | 0.34 | 0.02 | 95 | 1004.2 |
| 20260506030041 | 53 | 177 | 2.0 | 4.0 | 0.00 | 0.34 | 0.02 | 95 | 1004.3 |
| 20260506025538 | 53 | 178 | 1.0 | 4.0 | 0.00 | 0.34 | 0.02 | 95 | 1004.4 |
| 20260506025037 | 53 | 178 | 2.0 | 6.0 | 0.00 | 0.34 | 0.02 | 95 | 1004.4 |
| 20260506024555 | 53 | 201 | 3.0 | 4.0 | 0.00 | 0.34 | 0.02 | 95 | 1004.5 |
| 20260506024035 | 53 | 222 | 2.0 | 4.0 | 0.00 | 0.34 | 0.02 | 95 | 1004.4 |
| 20260506023532 | 53 | 242 | 2.0 | 4.0 | 0.00 | 0.34 | 0.02 | 95 | 1004.3 |
| 20260506023030 | 53 | 232 | 3.0 | 6.0 | 0.00 | 0.34 | 0.02 | 95 | 1004.3 |
| 20260506022548 | 53 | 219 | 3.0 | 6.0 | 0.00 | 0.34 | 0.02 | 94 | 1004.3 |
| 20260506022027 | 53 | 194 | 5.0 | 11.0 | 0.00 | 0.34 | 0.02 | 94 | 1004.4 |
| 20260506021545 | 53 | 230 | 2.0 | 6.0 | 0.00 | 0.34 | 0.02 | 95 | 1004.4 |
| 20260506021023 | 53 | 216 | 2.0 | 4.0 | 0.00 | 0.34 | 0.02 | 95 | 1004.4 |
| 20260506020521 | 53 | 214 | 4.0 | 8.0 | 0.00 | 0.34 | 0.02 | 95 | 1004.4 |
| 20260506020021 | 53 | 203 | 1.0 | 4.0 | 0.00 | 0.34 | 0.02 | 96 | 1004.4 |
| 20260506015518 | 53 | 203 | 1.0 | 4.0 | 0.00 | 0.34 | 0.02 | 95 | 1004.4 |
| 20260506015037 | 53 | 203 | 3.0 | 4.0 | 0.00 | 0.34 | 0.02 | 96 | 1004.4 |
| 20260506014615 | 53 | 225 | 2.0 | 4.0 | 0.00 | 0.34 | 0.02 | 96 | 1004.4 |
| 20260506014113 | 53 | 198 | 3.0 | 6.0 | 0.00 | 0.34 | 0.02 | 96 | 1004.5 |
| 20260506013611 | 53 | 213 | 2.0 | 4.0 | 0.00 | 0.34 | 0.02 | 96 | 1004.5 |
| 20260506013110 | 52 | 203 | 2.0 | 4.0 | 0.00 | 0.34 | 0.02 | 96 | 1004.5 |
| 20260506012608 | 53 | 207 | 2.0 | 4.0 | 0.00 | 0.34 | 0.02 | 96 | 1004.6 |
| 20260506012106 | 53 | 173 | 3.0 | 4.0 | 0.00 | 0.34 | 0.02 | 96 | 1004.6 |
| 20260506011605 | 52 | 221 | 2.0 | 4.0 | 0.00 | 0.34 | 0.02 | 96 | 1004.7 |
| 20260506011103 | 52 | 206 | 2.0 | 4.0 | 0.00 | 0.34 | 0.02 | 96 | 1004.6 |
| 20260506010601 | 52 | 211 | 2.0 | 4.0 | 0.00 | 0.34 | 0.02 | 96 | 1004.7 |
| 20260506010100 | 52 | 194 | 2.0 | 4.0 | 0.00 | 0.34 | 0.02 | 96 | 1004.6 |
| 20260506005558 | 52 | 158 | 1.0 | 2.0 | 0.00 | 0.34 | 0.02 | 97 | 1004.7 |
| 20260506005056 | 52 | 145 | 1.0 | 2.0 | 0.00 | 0.34 | 0.02 | 97 | 1004.6 |
| 20260506004554 | 52 | 135 | 0.0 | 2.0 | 0.00 | 0.34 | 0.02 | 97 | 1004.7 |
| 20260506004052 | 52 | 135 | 1.0 | 2.0 | 0.00 | 0.34 | 0.02 | 97 | 1004.7 |
| 20260506003551 | 52 | 135 | 0.0 | 2.0 | 0.00 | 0.34 | 0.02 | 97 | 1004.7 |
| 20260506003050 | 52 | 135 | 0.0 | 2.0 | 0.01 | 0.34 | 0.02 | 97 | 1004.8 |
| 20260506002551 | 52 | 135 | 1.0 | 4.0 | 0.02 | 0.34 | 0.02 | 96 | 1004.8 |
| 20260506002045 | 52 | 135 | 2.0 | 4.0 | 0.02 | 0.34 | 0.02 | 97 | 1004.9 |
| 20260506001544 | 52 | 135 | 2.0 | 4.0 | 0.02 | 0.34 | 0.02 | 97 | 1005.0 |
| 20260506001043 | 52 | 132 | 2.0 | 2.0 | 0.02 | 0.34 | 0.02 | 97 | 1005.0 |
| 20260506000541 | 52 | 135 | 2.0 | 2.0 | 0.02 | 0.34 | 0.02 | 97 | 1005.0 |
| 20260506000039 | 52 | 152 | 2.0 | 4.0 | 0.02 | 0.34 | 0.02 | 97 | 1005.1 |
| 20260505235537 | 52 | 158 | 2.0 | 2.0 | 0.02 | 0.34 | 0.02 | 97 | 1005.1 |
| 20260505235036 | 52 | 158 | 2.0 | 2.0 | 0.02 | 0.34 | 0.02 | 97 | 1005.1 |
| 20260505234533 | 52 | 158 | 1.0 | 2.0 | 0.02 | 0.34 | 0.02 | 97 | 1005.2 |
| 20260505234032 | 52 | 158 | 1.0 | 2.0 | 0.02 | 0.34 | 0.02 | 97 | 1005.3 |
| 20260505233531 | 52 | 158 | 2.0 | 4.0 | 0.02 | 0.34 | 0.02 | 97 | 1005.3 |
| 20260505233028 | 52 | 190 | 2.0 | 4.0 | 0.01 | 0.33 | 0.01 | 97 | 1005.3 |
| 20260505232527 | 52 | 149 | 2.0 | 4.0 | 0.00 | 0.32 | 0.00 | 97 | 1005.2 |
| 20260505232025 | 52 | 143 | 2.0 | 4.0 | 0.00 | 0.32 | 0.00 | 97 | 1005.2 |
| 20260505231523 | 52 | 150 | 2.0 | 4.0 | 0.00 | 0.32 | 0.00 | 97 | 1005.3 |
| 20260505231022 | 52 | 170 | 2.0 | 4.0 | 0.00 | 0.32 | 0.00 | 97 | 1005.3 |
| 20260505230520 | 52 | 135 | 1.0 | 2.0 | 0.00 | 0.32 | 0.00 | 97 | 1005.4 |
| 20260505230018 | 52 | 157 | 2.0 | 4.0 | 0.00 | 0.32 | 0.00 | 97 | 1005.3 |
| 20260505225516 | 52 | 180 | 2.0 | 4.0 | 0.00 | 0.32 | 0.00 | 97 | 1005.3 |
| 20260505225115 | 52 | 180 | 1.0 | 4.0 | 0.00 | 0.32 | 0.00 | 97 | 1005.3 |
| 20260505224613 | 52 | 193 | 2.0 | 2.0 | 0.00 | 0.32 | 0.00 | 97 | 1005.3 |
| 20260505224111 | 52 | 203 | 2.0 | 4.0 | 0.00 | 0.32 | 0.00 | 97 | 1005.3 |
| 20260505223610 | 52 | 225 | 2.0 | 4.0 | 0.00 | 0.32 | 0.00 | 97 | 1005.4 |
| 20260505223111 | 52 | 280 | 1.0 | 2.0 | 0.00 | 0.32 | 0.00 | 97 | 1005.4 |
| 20260505222606 | 52 | 293 | 1.0 | 2.0 | 0.00 | 0.32 | 0.00 | 97 | 1005.4 |
| 20260505222104 | 52 | 293 | 1.0 | 2.0 | 0.00 | 0.32 | 0.00 | 97 | 1005.3 |
| 20260505221623 | 52 | 293 | 2.0 | 2.0 | 0.00 | 0.32 | 0.00 | 97 | 1005.4 |
| 20260505221101 | 52 | 293 | 1.0 | 2.0 | 0.00 | 0.32 | 0.00 | 97 | 1005.4 |
| 20260505220619 | 52 | 293 | 1.0 | 2.0 | 0.00 | 0.32 | 0.00 | 97 | 1005.4 |
| 20260505220057 | 52 | 293 | 1.0 | 2.0 | 0.00 | 0.32 | 0.00 | 97 | 1005.4 |
| 20260505215556 | 52 | 293 | 0.0 | 2.0 | 0.00 | 0.32 | 0.32 | 97 | 1005.4 |
| 20260505215054 | 52 | 293 | 2.0 | 2.0 | 0.00 | 0.32 | 0.32 | 97 | 1005.5 |
| 20260505214552 | 52 | 293 | 1.0 | 2.0 | 0.00 | 0.32 | 0.32 | 97 | 1005.5 |
| 20260505214050 | 52 | 293 | 1.0 | 2.0 | 0.00 | 0.32 | 0.32 | 97 | 1005.5 |
| 20260505213552 | 52 | 293 | 1.0 | 2.0 | 0.00 | 0.32 | 0.32 | 97 | 1005.5 |
| 20260505213050 | 52 | 293 | 1.0 | 2.0 | 0.00 | 0.32 | 0.32 | 97 | 1005.4 |
| 20260505212545 | 52 | 0.0 | 2.0 | 0.00 | 0.32 | 0.32 | 96 | 1005.4 | |
| 20260505212043 | 52 | 293 | 1.0 | 2.0 | 0.00 | 0.32 | 0.32 | 96 | 1005.4 |
| 20260505211541 | 52 | 293 | 0.0 | 2.0 | 0.00 | 0.32 | 0.32 | 96 | 1005.4 |
| 20260505211040 | 52 | 0.0 | 0.0 | 0.00 | 0.32 | 0.32 | 96 | 1005.4 | |
| 20260505210558 | 53 | 0.0 | 2.0 | 0.00 | 0.32 | 0.32 | 96 | 1005.5 | |
| 20260505210036 | 53 | 0.0 | 2.0 | 0.00 | 0.32 | 0.32 | 96 | 1005.4 | |
| 20260505205540 | 53 | 293 | 1.0 | 2.0 | 0.00 | 0.32 | 0.32 | 96 | 1005.3 |
| 20260505205033 | 53 | 0.0 | 0.0 | 0.00 | 0.32 | 0.32 | 96 | 1005.3 | |
| 20260505204531 | 53 | 293 | 0.0 | 2.0 | 0.00 | 0.32 | 0.32 | 96 | 1005.3 |
| 20260505204029 | 53 | 293 | 0.0 | 2.0 | 0.00 | 0.32 | 0.32 | 96 | 1005.3 |
| 20260505203527 | 53 | 293 | 1.0 | 2.0 | 0.00 | 0.32 | 0.32 | 95 | 1005.4 |
| 20260505203025 | 53 | 293 | 1.0 | 2.0 | 0.00 | 0.32 | 0.32 | 95 | 1005.2 |
| 20260505202523 | 53 | 293 | 1.0 | 2.0 | 0.00 | 0.32 | 0.32 | 95 | 1005.1 |
| 20260505202041 | 53 | 293 | 1.0 | 2.0 | 0.00 | 0.32 | 0.32 | 95 | 1005.1 |
| 20260505201540 | 53 | 293 | 0.0 | 2.0 | 0.00 | 0.32 | 0.32 | 95 | 1005.2 |
| 20260505201018 | 53 | 293 | 1.0 | 2.0 | 0.00 | 0.32 | 0.32 | 95 | 1005.1 |
| 20260505200536 | 54 | 296 | 1.0 | 2.0 | 0.00 | 0.32 | 0.32 | 94 | 1005.1 |
| 20260505200114 | 54 | 315 | 0.0 | 2.0 | 0.00 | 0.32 | 0.32 | 94 | 1005.1 |
| 20260505195612 | 54 | 315 | 2.0 | 4.0 | 0.00 | 0.32 | 0.32 | 94 | 1005.0 |
| 20260505195111 | 54 | 315 | 1.0 | 2.0 | 0.00 | 0.32 | 0.32 | 94 | 1005.1 |
| 20260505194611 | 54 | 315 | 1.0 | 4.0 | 0.00 | 0.32 | 0.32 | 94 | 1005.1 |
| 20260505194127 | 54 | 313 | 1.0 | 2.0 | 0.00 | 0.32 | 0.32 | 94 | 1005.0 |
| 20260505193606 | 54 | 306 | 3.0 | 6.0 | 0.00 | 0.32 | 0.32 | 93 | 1005.0 |
| 20260505193104 | 54 | 315 | 2.0 | 4.0 | 0.00 | 0.32 | 0.32 | 94 | 1005.0 |
| 20260505192602 | 54 | 318 | 3.0 | 6.0 | 0.00 | 0.32 | 0.32 | 93 | 1005.0 |
| 20260505192100 | 54 | 323 | 3.0 | 4.0 | 0.00 | 0.32 | 0.32 | 93 | 1004.8 |
| 20260505191558 | 54 | 315 | 2.0 | 6.0 | 0.00 | 0.32 | 0.32 | 93 | 1004.9 |
| 20260505191056 | 54 | 301 | 3.0 | 7.0 | 0.00 | 0.32 | 0.32 | 93 | 1005.1 |
| 20260505190555 | 54 | 295 | 1.0 | 4.0 | 0.00 | 0.32 | 0.32 | 94 | 1005.2 |
| 20260505190053 | 54 | 289 | 2.0 | 4.0 | 0.00 | 0.32 | 0.32 | 94 | 1005.2 |
| 20260505185551 | 54 | 315 | 2.0 | 4.0 | 0.00 | 0.32 | 0.32 | 93 | 1005.1 |
| 20260505185050 | 54 | 308 | 1.0 | 4.0 | 0.00 | 0.32 | 0.32 | 94 | 1005.0 |
| 20260505184550 | 54 | 270 | 1.0 | 2.0 | 0.00 | 0.32 | 0.32 | 94 | 1005.0 |
| 20260505184045 | 54 | 263 | 1.0 | 2.0 | 0.00 | 0.32 | 0.32 | 94 | 1005.0 |
| 20260505183543 | 54 | 252 | 1.0 | 4.0 | 0.00 | 0.32 | 0.32 | 94 | 1005.0 |
| 20260505183057 | 54 | 278 | 2.0 | 4.0 | 0.00 | 0.32 | 0.32 | 93 | 1005.0 |
| 20260505182540 | 54 | 315 | 1.0 | 4.0 | 0.00 | 0.32 | 0.32 | 93 | 1004.9 |
| 20260505182038 | 55 | 310 | 1.0 | 4.0 | 0.00 | 0.32 | 0.32 | 93 | 1004.9 |
| 20260505181536 | 55 | 319 | 2.0 | 4.0 | 0.00 | 0.32 | 0.32 | 92 | 1004.9 |
| 20260505181034 | 55 | 315 | 2.0 | 6.0 | 0.00 | 0.32 | 0.32 | 93 | 1004.8 |
| 20260505180533 | 55 | 307 | 2.0 | 4.0 | 0.00 | 0.32 | 0.32 | 93 | 1004.7 |
| 20260505180051 | 55 | 315 | 0.0 | 2.0 | 0.00 | 0.32 | 0.32 | 93 | 1004.7 |
| 20260505175529 | 55 | 274 | 2.0 | 4.0 | 0.00 | 0.32 | 0.32 | 93 | 1004.7 |
| 20260505175027 | 55 | 288 | 2.0 | 4.0 | 0.00 | 0.32 | 0.32 | 93 | 1004.6 |
| 20260505174526 | 55 | 292 | 1.0 | 4.0 | 0.00 | 0.32 | 0.32 | 94 | 1004.5 |
| 20260505174024 | 55 | 299 | 2.0 | 6.0 | 0.02 | 0.32 | 0.32 | 93 | 1004.4 |
| 20260505173522 | 54 | 311 | 3.0 | 4.0 | 0.04 | 0.32 | 0.32 | 93 | 1004.4 |
| 20260505173021 | 54 | 307 | 2.0 | 4.0 | 0.05 | 0.32 | 0.32 | 93 | 1004.4 |
| 20260505172519 | 54 | 308 | 2.0 | 4.0 | 0.06 | 0.32 | 0.32 | 93 | 1004.3 |
| 20260505172017 | 54 | 306 | 2.0 | 6.0 | 0.07 | 0.32 | 0.32 | 92 | 1004.3 |
| 20260505171515 | 54 | 277 | 2.0 | 7.0 | 0.09 | 0.32 | 0.32 | 92 | 1004.3 |
| 20260505171115 | 54 | 301 | 3.0 | 6.0 | 0.11 | 0.32 | 0.32 | 92 | 1004.2 |
| 20260505170612 | 54 | 254 | 2.0 | 4.0 | 0.13 | 0.32 | 0.32 | 92 | 1004.4 |
| 20260505170110 | 54 | 296 | 2.0 | 4.0 | 0.15 | 0.32 | 0.32 | 93 | 1004.3 |
| 20260505165708 | 54 | 315 | 2.0 | 6.0 | 0.18 | 0.32 | 0.32 | 92 | 1004.4 |
| 20260505165106 | 54 | 311 | 3.0 | 6.0 | 0.19 | 0.32 | 0.32 | 92 | 1004.4 |
| 20260505164605 | 54 | 311 | 3.0 | 6.0 | 0.20 | 0.32 | 0.32 | 91 | 1004.6 |
| 20260505164103 | 54 | 315 | 2.0 | 4.0 | 0.19 | 0.30 | 0.30 | 91 | 1004.7 |
| 20260505163601 | 54 | 315 | 2.0 | 4.0 | 0.18 | 0.28 | 0.28 | 90 | 1004.9 |
| 20260505163059 | 54 | 309 | 3.0 | 6.0 | 0.17 | 0.27 | 0.27 | 91 | 1005.0 |
| 20260505162558 | 54 | 236 | 3.0 | 7.0 | 0.18 | 0.26 | 0.26 | 91 | 1005.3 |
| 20260505162056 | 54 | 225 | 3.0 | 7.0 | 0.19 | 0.25 | 0.25 | 91 | 1005.5 |
| 20260505161554 | 55 | 246 | 5.0 | 11.0 | 0.19 | 0.22 | 0.22 | 90 | 1005.4 |
| 20260505161052 | 55 | 221 | 3.0 | 8.0 | 0.21 | 0.21 | 0.21 | 91 | 1005.4 |
| 20260505160551 | 55 | 205 | 5.0 | 11.0 | 0.19 | 0.19 | 0.19 | 90 | 1005.4 |
| 20260505153038 | 58 | 270 | 3.0 | 8.0 | 0.11 | 0.11 | 0.11 | 81 | 1004.2 |
| 20260505152536 | 59 | 257 | 3.0 | 6.0 | 0.08 | 0.08 | 0.08 | 77 | 1004.2 |
| 20260505152055 | 61 | 224 | 7.0 | 13.0 | 0.06 | 0.06 | 0.06 | 70 | 1004.2 |
| 20260505151533 | 64 | 229 | 5.0 | 11.0 | 0.04 | 0.04 | 0.04 | 64 | 1004.0 |
| 20260505151031 | 65 | 262 | 2.0 | 6.0 | 0.00 | 0.00 | 0.00 | 60 | 1003.7 |
| 20260505150533 | 66 | 315 | 2.0 | 4.0 | 0.00 | 0.00 | 0.00 | 58 | 1003.5 |
| 20260505140607 | 68 | 338 | 1.0 | 2.0 | 0.00 | 0.00 | 0.00 | 53 | 1003.8 |
| 20260505140105 | 68 | 349 | 1.0 | 4.0 | 0.00 | 0.00 | 0.00 | 52 | 1003.9 |
| 20260505125041 | 70 | 358 | 3.0 | 8.0 | 0.00 | 0.00 | 0.00 | 52 | 1004.6 |
| 20260505124539 | 71 | 38 | 4.0 | 9.0 | 0.00 | 0.00 | 0.00 | 51 | 1004.7 |
| 20260505124037 | 70 | 340 | 3.0 | 7.0 | 0.00 | 0.00 | 0.00 | 52 | 1004.7 |
| 20260505123535 | 69 | 313 | 4.0 | 8.0 | 0.00 | 0.00 | 0.00 | 54 | 1004.8 |
| 20260505123033 | 69 | 308 | 5.0 | 9.0 | 0.00 | 0.00 | 0.00 | 53 | 1004.9 |
| 20260505122531 | 70 | 306 | 6.0 | 11.0 | 0.00 | 0.00 | 0.00 | 53 | 1004.9 |
| 20260505122030 | 69 | 299 | 4.0 | 8.0 | 0.00 | 0.00 | 0.00 | 52 | 1004.9 |
| 20260505121528 | 70 | 343 | 6.0 | 11.0 | 0.00 | 0.00 | 0.00 | 54 | 1004.9 |
| 20260505121025 | 70 | 335 | 3.0 | 9.0 | 0.00 | 0.00 | 0.00 | 52 | 1004.9 |
| 20260505120527 | 72 | 315 | 4.0 | 9.0 | 0.00 | 0.00 | 0.00 | 50 | 1005.0 |
| 20260505120022 | 71 | 328 | 3.0 | 9.0 | 0.00 | 0.00 | 0.00 | 50 | 1005.0 |
| 20260505115520 | 71 | 305 | 5.0 | 9.0 | 0.00 | 0.00 | 0.00 | 50 | 1005.1 |
| 20260505115018 | 70 | 330 | 3.0 | 6.0 | 0.00 | 0.00 | 0.00 | 50 | 1005.1 |
| 20260505114517 | 69 | 323 | 2.0 | 6.0 | 0.00 | 0.00 | 0.00 | 49 | 1005.2 |
| 20260505114015 | 69 | 349 | 2.0 | 4.0 | 0.00 | 0.00 | 0.00 | 49 | 1005.3 |
| 20260505113613 | 68 | 16 | 2.0 | 4.0 | 0.00 | 0.00 | 0.00 | 50 | 1005.3 |
| 20260505113112 | 69 | 29 | 2.0 | 6.0 | 0.00 | 0.00 | 0.00 | 50 | 1005.3 |
| 20260505112610 | 69 | 23 | 2.0 | 4.0 | 0.00 | 0.00 | 0.00 | 48 | 1005.4 |